ON7LDS-13 Weather Reports


time (UTC)temp
C
wind
direction
speed
KPH
gust
KPH
rain 1hr
cm
rain 24hr
cm
rain mn
cm
humidity
%
barometer
mb
20260506203655 10 0.0 0.0 0.00 0.00 0.00 20 1016.4
20260506202603 10 0.0 0.0 0.00 0.00 0.00 20 1016.4
20260506201535 10 0.0 0.0 0.00 0.00 0.00 21 1016.3
20260506200533 10 0.0 0.0 0.00 0.00 0.00 22 1016.2
20260506195534 10 0.0 0.0 0.00 0.00 0.00 22 1016.1
20260506194535 11 0.0 0.0 0.00 0.00 0.00 23 1016.1
20260506193533 11 0.0 0.0 0.00 0.00 0.00 24 1016.0
20260506192533 11 0.0 0.0 0.00 0.00 0.00 27 1015.9
20260506191535 11 0.0 0.0 0.00 0.00 0.00 26 1015.8
20260506190534 11 0.0 0.0 0.00 0.00 0.00 31 1015.7
20260506185533 11 0.0 0.0 0.00 0.00 0.00 34 1015.6
20260506184602 11 0.0 0.0 0.00 0.00 0.00 37 1015.5
20260506183643 12 0.0 0.0 0.00 0.00 0.00 40 1015.4
20260506182632 12 0.0 0.0 0.00 0.00 0.00 42 1015.3
20260506181532 12 0.0 0.0 0.00 0.00 0.00 44 1015.1
20260506180532 12 0.0 0.0 0.00 0.00 0.00 46 1015.0
20260506175532 12 0.0 0.0 0.00 0.00 0.00 48 1014.9
20260506174554 12 0.0 0.0 0.00 0.00 0.00 50 1014.8
20260506173555 12 0.0 0.0 0.00 0.00 0.00 51 1014.7
20260506172602 13 0.0 0.0 0.00 0.00 0.00 52 1014.6
20260506171532 13 0.0 0.0 0.00 0.00 0.00 53 1014.5
20260506170602 13 0.0 0.0 0.00 0.00 0.00 56 1014.4
20260506165533 13 0.0 0.0 0.00 0.00 0.00 56 1014.3
20260506164553 14 0.0 0.0 0.00 0.00 0.00 57 1014.1
20260506163551 14 0.0 0.0 0.00 0.00 0.00 57 1013.9
20260506162532 15 0.0 0.0 0.00 0.00 0.00 57 1013.8
20260506161653 15 0.0 0.0 0.00 0.00 0.00 57 1013.8
20260506160633 15 0.0 0.0 0.00 0.00 0.00 57 1013.8
20260506155613 15 0.0 0.0 0.00 0.00 0.00 57 1013.8
20260506154533 15 0.0 0.0 0.00 0.00 0.00 57 1013.8
20260506153531 15 0.0 0.0 0.00 0.00 0.00 57 1013.8
20260506152531 15 0.0 0.0 0.00 0.00 0.00 56 1013.7
20260506151531 15 0.0 0.0 0.00 0.00 0.00 56 1013.7
20260506150531 15 0.0 0.0 0.00 0.00 0.00 56 1013.6
20260506145532 15 0.0 0.0 0.00 0.00 0.00 56 1013.5
20260506144601 15 0.0 0.0 0.00 0.00 0.00 57 1013.6
20260506143531 16 0.0 0.0 0.00 0.00 0.00 56 1013.6
20260506142532 16 0.0 0.0 0.00 0.00 0.00 56 1013.5
20260506141530 16 0.0 0.0 0.00 0.00 0.00 56 1013.5
20260506140652 16 0.0 0.0 0.00 0.00 0.00 56 1013.5
20260506135530 16 0.0 0.0 0.00 0.00 0.00 56 1013.5
20260506134530 16 0.0 0.0 0.00 0.00 0.00 56 1013.5
20260506133531 16 0.0 0.0 0.00 0.00 0.00 56 1013.5
20260506132550 16 0.0 0.0 0.00 0.00 0.00 54 1013.4
20260506131532 15 0.0 0.0 0.00 0.00 0.00 55 1013.4
20260506130530 15 0.0 0.0 0.00 0.00 0.00 54 1013.3
20260506125530 15 0.0 0.0 0.00 0.00 0.00 52 1013.3
20260506124559 15 0.0 0.0 0.00 0.00 0.00 48 1013.3
20260506123529 15 0.0 0.0 0.00 0.00 0.00 41 1013.3
20260506122600 15 0.0 0.0 0.00 0.00 0.00 28 1013.2
20260506121529 15 0.0 0.0 0.00 0.00 0.00 31 1013.1
20260506120529 15 0.0 0.0 0.00 0.00 0.00 22 1013.0
20260506115529 15 0.0 0.0 0.00 0.00 0.00 20 1013.1
20260506114559 13 0.0 0.0 0.00 0.00 0.00 1 1013.2
20260506113551 13 0.0 0.0 0.00 0.00 0.00 5 1013.1
20260506112549 12 0.0 0.0 0.00 0.00 0.00 1 1013.1
20260506111531 12 0.0 0.0 0.00 0.00 0.00 1 1013.1
20260506110530 12 0.0 0.0 0.00 0.00 0.00 1 1013.2
20260506105530 12 0.0 0.0 0.00 0.00 0.00 1 1013.2
20260506104529 13 0.0 0.0 0.00 0.00 0.00 2 1013.2
20260506103529 13 0.0 0.0 0.00 0.00 0.00 1 1013.3
20260506102610 13 0.0 0.0 0.00 0.00 0.00 1 1013.2
20260506101528 13 0.0 0.0 0.00 0.00 0.00 1 1013.1
20260506100628 12 0.0 0.0 0.00 0.00 0.00 1 1013.1
20260506095530 12 0.0 0.0 0.00 0.00 0.00 1 1013.0
20260506094558 12 0.0 0.0 0.00 0.00 0.00 1 1013.0
20260506093628 12 0.0 0.0 0.00 0.00 0.00 1 1013.0
20260506092528 12 0.0 0.0 0.00 0.00 0.00 1 1013.0
20260506091528 12 0.0 0.0 0.00 0.00 0.00 1 1012.9
20260506090628 12 0.0 0.0 0.00 0.00 0.00 1 1012.9
20260506085558 11 0.0 0.0 0.00 0.00 0.00 1 1012.8
20260506084528 11 0.0 0.0 0.00 0.00 0.00 1 1012.7
20260506083528 11 0.0 0.0 0.00 0.00 0.00 1 1012.7
20260506082529 11 0.0 0.0 0.00 0.00 0.00 1 1012.6
20260506081557 11 0.0 0.0 0.00 0.00 0.00 1 1012.6
20260506080528 10 0.0 0.0 0.00 0.00 0.00 1 1012.6
20260506073527 10 0.0 0.0 0.00 0.00 0.00 1 1012.5
20260506072529 10 0.0 0.0 0.00 0.00 0.00 1 1012.4
20260506071627 10 0.0 0.0 0.00 0.00 0.00 1 1012.4
20260506070628 10 0.0 0.0 0.00 0.00 0.00 1 1012.4
20260506061547 9 0.0 0.0 0.00 0.00 0.00 1 1012.0
20260506060557 9 0.0 0.0 0.00 0.00 0.00 1 1012.0
20260506050626 9 0.0 0.0 0.00 0.00 0.00 1 1011.9
20260506044559 9 0.0 0.0 0.00 0.00 0.00 1 1011.9
20260506043526 9 0.0 0.0 0.00 0.00 0.00 1 1011.9
20260506042626 9 0.0 0.0 0.00 0.00 0.00 1 1011.9
20260506041527 9 0.0 0.0 0.00 0.00 0.00 1 1011.8
20260506040626 9 0.0 0.0 0.00 0.00 0.00 1 1011.9
20260506035525 9 0.0 0.0 0.00 0.00 0.00 1 1011.9
20260506034525 9 0.0 0.0 0.00 0.00 0.00 1 1012.0
20260506033648 9 0.0 0.0 0.00 0.00 0.00 1 1012.0
20260506032525 9 0.0 0.0 0.00 0.00 0.00 1 1012.1
20260506031645 9 0.0 0.0 0.00 0.00 0.00 1 1012.1
20260506030545 9 0.0 0.0 0.00 0.00 0.00 1 1012.2
20260506025525 9 0.0 0.0 0.00 0.00 0.00 1 1012.3
20260506024525 9 0.0 0.0 0.00 0.00 0.00 1 1012.4
20260506023525 9 0.0 0.0 0.00 0.00 0.00 1 1012.4
20260506022546 9 0.0 0.0 0.00 0.00 0.00 1 1012.4
20260506021625 9 0.0 0.0 0.00 0.00 0.00 1 1012.4
20260506020626 9 0.0 0.0 0.00 0.00 0.00 1 1012.4
20260506015525 9 0.0 0.0 0.00 0.00 0.00 1 1012.4
20260506014529 10 0.0 0.0 0.00 0.00 0.00 1 1012.4
20260506013524 10 0.0 0.0 0.00 0.00 0.00 1 1012.5
20260506012526 10 0.0 0.0 0.00 0.00 0.00 1 1012.5
20260506011556 10 0.0 0.0 0.00 0.00 0.00 1 1012.5
20260506010524 10 0.0 0.0 0.00 0.00 0.00 1 1012.6
20260506005644 10 0.0 0.0 0.00 0.00 0.00 1 1012.7
20260506004524 10 0.0 0.0 0.00 0.00 0.00 1 1012.8
20260506003626 10 0.0 0.0 0.00 0.00 0.00 1 1012.8
20260506002524 10 0.0 0.0 0.00 0.00 0.00 1 1012.9
20260506001624 10 0.0 0.0 0.00 0.00 0.00 1 1012.9
20260506000624 10 0.0 0.0 0.00 0.00 0.00 1 1013.0
20260505235524 10 0.0 0.0 0.00 0.00 0.00 1 1013.1
20260505234524 10 0.0 0.0 0.00 0.00 0.00 1 1013.1
20260505233623 10 0.0 0.0 0.00 0.00 0.00 1 1013.1
20260505232645 10 0.0 0.0 0.00 0.00 0.00 1 1013.2
20260505231523 10 0.0 0.0 0.00 0.00 0.00 1 1013.2
20260505230525 10 0.0 0.0 0.00 0.00 0.00 1 1013.3
20260505225525 10 0.0 0.0 0.00 0.00 0.00 1 1013.3
20260505224543 10 0.0 0.0 0.00 0.00 0.00 1 1013.4
20260505223525 10 0.0 0.0 0.00 0.00 0.00 1 1013.4
20260505222525 10 0.0 0.0 0.00 0.00 0.00 1 1013.4
20260505221554 10 0.0 0.0 0.00 0.00 0.00 1 1013.5
20260505220523 10 0.0 0.0 0.00 0.00 0.00 1 1013.6
20260505215643 10 0.0 0.0 0.00 0.00 0.00 1 1013.7
20260505214523 10 0.0 0.0 0.00 0.00 0.00 1 1013.7
20260505213544 10 0.0 0.0 0.00 0.00 0.00 1 1013.7
20260505212643 10 0.0 0.0 0.00 0.00 0.00 1 1013.7
20260505211522 10 0.0 0.0 0.00 0.00 0.00 1 1013.7
20260505210522 10 0.0 0.0 0.00 0.00 0.00 1 1013.8
20260505205644 10 0.0 0.0 0.00 0.00 0.00 1 1013.8
20260505204542 10 0.0 0.0 0.00 0.00 0.00 1 1013.8